Showing default

COSMOS 2093, 20738

Orbit data source: Space-Track

COSMOS 2093, 20738 is a payload satellite owned by UNKS (CIS) in LEO that was launched on Wed, 08 Aug 1990 UTC via a TSIKLON-3 launch vehicle from the Plesetsk Missile And Space Complex (PKMTR). Payload-class satellites include a variety of spacecraft equipped with specific instruments for various scientific and technological missions. These include communications satellites like Starlink; space stations such as the ISS; scientific satellites like the Hubble; Earth observation satellites from companies like Planet Labs, Umbra, and HawkEye 360; GPS; miniature CubeSats for education and research; and military/defense satellites.

Loading next visibility...
Identifier
20738, 1990-070D
Orbit
LEO
Country
Flag of CISCIS
Related business
Manufacturer
NPO PM
Mission
Defense Communications
Bus & Motor
STRELA-3, Unknown motor
Mass
225 kg wet, 225 kg dry
Launch date (UTC)
1990-08-08 (35 years ago)
Launch vehicle
TSIKLON-3
Launch site
Plesetsk Missile And Space Complex (PKMTR)
Object type
Payload
Rocket body
Debris
Shape & HBR
Cyl, 0.8 m
Radar Cross Section
1.257 m², Large (>1 m²)

Expand to show TLE details & history
Last TLE update: 14 hours ago

TLE from 14 hours ago
0 COSMOS 2093
1 20738U 90070D   26036.39745581  .00000029  00000-0  10025-3 0  9997
2 20738  82.5746  25.3055 0009812  51.9813 101.7229 12.64090940637723
Epoch: 2026-02-05T09:32Z
TLE epoch observation values (Epoch: 2026-02-05T09:32:20.181Z)
Latitude
25.9803°
Longitude
-76.95214°
Altitude
1,410.676 km
Speed
7.157 km/s
True Right ascension
13h 26m 43s
True Declination
25° 51' 23"
Sunlit
Object was in daylight at epoch
Visualization orbit readout
Latitude
Unknown
Longitude
Unknown
Altitude
Unknown
Speed
Unknown
Apparent Right ascension
Unknown
Apparent Declination
Unknown
Sunlit
N/A
Visualization observer readout
Local Sidereal Time
01:18:06
Azimuth
Unknown
Elevation
Unknown
Doppler factor
Unknown
Orbital elements
Apogee altitude
1,411.058 km
Perigee altitude
1,395.787 km
Semi-major axis
7,781.56 km
Eccentricity
0.00098
Inclination
82.5746°
RAAN
25.3055°
Arg. of periapsis
51.9813°
True anomaly
101.83296°
Mean anomaly
101.7229°
Eccentric anomaly
101.77793°
Mean motion
3.16186 °/min
Orbital period
113.86 mins
BSTAR
0.00010025
Loading maneuver chart data...
Computing Atmospheric mass density...
Loading historical data...
Loading historical data...
Loading historical data...
Loading historical data...
Loading historical data...
Loading historical data...
Loading historical data...

Documentation

Showing up to 5 results
|